Total_Precipitation_Accumulation
-0.00 -0.00 0.00 -0.00 -0.00 -0.01 -0.01 -0.00 -0.03 -0.03 -0.02 -0.01 -0.00 -0.00 -0.01 -0.01 -0.00 -0.00 0.00 0.00 0.00 0.00 0.00 0.00 0.00 0.00 0.00 0.00 0.00 0.00 0.00 0.00 0.00 0.00 0.00 0.00 0.00 0.00 0.00 0.00 0.00 0.00 0.00 0.00 0.00 -0.00 0.00 -0.00 -0.00 0.00 0.00 0.00 0.00 0.00 -0.00 -0.00 -0.00 -0.00 -0.01 -0.00 -0.00 0.00 0.02 0.02 0.02 0.03 0.03 0.02 0.02 0.02 0.03 0.04 0.06 0.06 0.07 0.10 0.15 0.15 0.14 0.18 0.18 0.18 0.21 0.21 0.21 0.23
-0.00 -0.00 0.00 0.00 0.00 0.00 -0.00 -0.00 -0.01 -0.01 -0.02 -0.01 -0.00 -0.00 -0.00 -0.00 -0.00 -0.00 0.00 0.00 0.00 0.00 0.00 0.00 0.00 0.00 0.00 0.00 0.00 0.00 0.00 0.00 0.00 0.00 0.00 0.00 0.00 0.00 0.00 0.00 0.00 0.00 0.00 -0.00 -0.00 -0.01 -0.00 -0.00 -0.00 -0.00 -0.00 -0.01 -0.01 -0.01 0.00 -0.00 -0.00 -0.00 -0.01 -0.00 -0.00 -0.00 0.01 0.02 0.02 0.01 0.02 0.01 0.01 0.01 0.02 0.03 0.03 0.03 0.05 0.08 0.11 0.11 0.12 0.15 0.15 0.16 0.20 0.22 0.22 0.21
-0.00 -0.00 -0.00 0.00 0.00 -0.00 0.00 0.00 0.00 0.00 -0.00 -0.01 -0.01 -0.01 0.00 0.00 0.00 0.00 -0.00 0.00 0.00 0.00 0.00 0.00 0.00 0.00 0.00 0.00 0.00 0.00 0.00 0.00 0.00 0.00 0.00 0.00 0.00 0.00 0.00 -0.00 -0.00 -0.00 -0.00 -0.00 -0.00 -0.01 -0.01 -0.01 -0.01 -0.01 -0.02 -0.02 -0.01 -0.01 0.01 0.01 0.01 -0.00 -0.02 -0.03 -0.03 -0.01 0.01 0.01 0.01 0.01 0.01 0.02 0.03 0.03 0.04 0.04 0.05 0.05 0.05 0.05 0.06 0.06 0.06 0.08 0.08 0.09 0.13 0.14 0.14 0.21
-0.00 -0.00 -0.01 -0.00 -0.00 -0.00 0.00 0.00 0.00 0.00 0.00 -0.00 0.01 0.01 0.01 0.00 -0.00 -0.00 -0.00 -0.00 -0.00 0.00 0.00 0.00 0.00 0.00 0.00 0.00 0.00 0.00 0.00 0.00 0.00 0.00 0.00 0.00 -0.01 -0.01 -0.01 -0.01 -0.01 -0.00 -0.00 -0.00 -0.00 -0.00 -0.00 -0.01 -0.01 -0.02 -0.02 -0.02 -0.02 -0.02 -0.01 -0.02 -0.02 -0.02 -0.04 -0.03 -0.03 -0.01 -0.01 0.00 0.00 0.03 0.02 0.03 0.04 0.04 0.04 0.05 0.04 0.04 0.04 0.03 0.05 0.05 0.05 0.06 0.06 0.07 0.09 0.10 0.10 0.13
-0.01 -0.01 0.00 0.00 0.00 0.00 0.00 0.00 0.00 0.00 0.00 0.01 0.01 0.01 -0.00 -0.00 -0.00 -0.00 -0.00 -0.00 -0.00 -0.00 -0.00 0.00 0.00 0.00 -0.00 0.00 0.00 0.00 0.00 0.00 0.00 0.00 0.00 0.00 -0.00 -0.00 -0.01 -0.03 -0.03 -0.01 -0.01 -0.00 -0.00 0.00 0.00 -0.01 -0.01 -0.02 -0.01 -0.02 -0.01 -0.01 -0.01 -0.01 -0.01 -0.01 0.00 -0.00 -0.00 -0.01 -0.00 0.02 0.02 0.04 0.03 0.04 0.04 0.04 0.05 0.05 0.04 0.04 0.04 0.06 0.05 0.05 0.06 0.06 0.06 0.08 0.08 0.10 0.10 0.10
0.01 0.00 0.01 0.01 0.01 0.00 0.00 0.01 0.02 0.02 0.02 0.02 0.00 0.00 -0.01 -0.01 0.01 0.01 0.00 -0.00 -0.00 -0.00 -0.00 0.00 0.00 -0.00 -0.00 0.00 0.00 0.00 0.00 0.00 0.00 0.00 0.00 0.00 -0.01 -0.01 -0.03 -0.03 -0.03 -0.01 -0.00 0.00 0.00 -0.00 0.00 -0.01 -0.01 0.01 -0.03 -0.03 -0.02 -0.02 -0.01 -0.00 -0.00 -0.00 -0.03 -0.04 -0.04 -0.04 -0.02 -0.00 -0.00 0.03 0.03 0.04 0.03 0.03 0.05 0.03 0.05 0.05 0.06 0.06 0.07 0.07 0.05 0.05 0.05 0.06 0.07 0.09 0.09 0.09
0.04 0.02 0.01 0.01 0.01 0.01 0.01 0.04 0.04 0.04 0.03 0.01 0.01 0.01 0.00 0.00 0.00 0.00 0.00 -0.00 -0.00 -0.00 -0.00 -0.00 -0.00 0.00 0.00 0.00 0.00 0.00 0.00 0.00 0.00 0.00 0.00 0.00 0.00 0.00 -0.01 -0.04 -0.04 -0.00 -0.00 -0.00 -0.00 -0.00 -0.00 -0.01 -0.01 -0.01 -0.03 -0.03 -0.03 -0.03 0.02 0.02 0.02 -0.01 0.03 -0.00 -0.00 -0.02 0.02 0.02 0.02 0.03 0.03 0.02 0.02 0.02 0.02 0.04 0.03 0.03 0.04 0.05 0.04 0.04 0.06 0.05 0.05 0.07 0.06 0.07 0.07 0.09
0.03 0.03 0.06 0.07 0.07 0.07 0.06 0.03 0.03 0.03 0.04 0.04 0.10 0.10 0.04 0.02 0.00 0.00 -0.00 -0.00 -0.00 0.00 -0.00 -0.00 -0.00 -0.00 -0.00 -0.00 -0.00 -0.00 -0.00 -0.00 0.00 0.00 0.00 -0.00 -0.00 -0.00 -0.01 -0.01 -0.01 0.00 0.00 0.00 0.00 -0.00 -0.01 -0.05 -0.05 -0.05 -0.04 0.02 0.01 0.01 0.01 0.02 0.02 0.03 0.04 0.04 0.04 0.04 0.02 0.04 0.04 0.00 0.01 0.02 0.05 0.05 0.06 0.07 0.05 0.05 0.06 0.08 0.08 0.08 0.08 0.08 0.08 0.09 0.08 0.09 0.09 0.09
0.09 0.07 0.05 0.03 0.03 0.02 0.02 0.08 0.03 0.03 0.02 0.05 0.07 0.07 0.04 0.02 -0.01 -0.01 -0.01 -0.00 -0.00 -0.00 -0.00 -0.01 -0.01 -0.00 -0.01 -0.01 -0.01 -0.01 -0.00 -0.00 0.00 0.00 0.00 -0.00 0.00 0.00 0.00 0.00 0.00 0.00 0.00 -0.01 -0.01 -0.02 -0.03 -0.05 -0.05 -0.04 0.01 -0.01 0.01 0.01 -0.03 -0.01 -0.01 0.02 -0.01 0.00 0.00 0.01 -0.01 0.00 0.00 -0.02 0.01 0.03 0.04 0.04 0.05 0.08 0.09 0.09 0.08 0.11 0.09 0.09 0.10 0.08 0.08 0.08 0.07 0.09 0.09 0.09
0.10 0.11 0.03 0.07 0.07 0.10 0.11 0.10 0.08 0.08 0.09 0.09 0.02 0.02 0.01 -0.00 -0.01 -0.01 -0.02 -0.01 -0.01 -0.00 -0.01 -0.03 -0.03 -0.03 -0.04 -0.03 -0.03 -0.03 -0.01 -0.00 0.00 0.00 0.00 0.00 0.00 0.00 0.00 0.00 0.00 0.00 0.00 0.00 0.00 -0.02 -0.05 -0.01 -0.01 -0.01 -0.02 -0.06 -0.06 -0.06 -0.11 -0.08 -0.08 -0.05 -0.07 -0.03 -0.03 -0.02 -0.03 -0.04 -0.04 -0.03 0.01 0.02 0.05 0.05 0.06 0.08 0.14 0.14 0.13 0.13 0.12 0.12 0.11 0.10 0.10 0.08 0.12 0.10 0.10 0.12
0.05 0.02 0.16 0.16 0.16 0.11 0.10 0.18 0.11 0.11 0.06 0.05 -0.01 -0.01 -0.01 -0.00 -0.01 -0.01 -0.02 -0.01 -0.01 -0.01 -0.03 -0.04 -0.04 -0.05 -0.06 -0.05 -0.04 -0.04 -0.02 -0.01 0.00 0.00 0.00 0.00 0.01 0.01 0.01 0.01 0.01 0.01 0.01 0.03 0.03 0.01 -0.00 -0.06 -0.06 -0.07 -0.07 -0.09 -0.11 -0.11 -0.13 -0.13 -0.13 -0.10 -0.07 -0.05 -0.05 -0.03 -0.03 -0.03 -0.03 -0.03 -0.00 0.02 0.13 0.13 0.14 0.13 0.18 0.18 0.16 0.13 0.12 0.12 0.09 0.11 0.11 0.11 0.10 0.11 0.11 0.10
0.10 0.18 0.13 0.11 0.11 0.14 0.17 0.12 0.02 0.02 0.01 -0.00 -0.01 -0.01 -0.01 -0.00 -0.00 -0.00 -0.00 -0.00 -0.00 -0.01 -0.01 -0.04 -0.04 -0.05 -0.05 -0.05 -0.05 -0.05 -0.02 0.04 0.03 0.03 0.01 0.03 0.03 0.03 0.02 0.05 0.05 0.05 0.04 -0.01 -0.01 -0.03 -0.04 -0.07 -0.07 -0.07 -0.07 -0.08 -0.09 -0.09 -0.11 -0.12 -0.12 -0.12 -0.10 -0.05 -0.05 -0.04 -0.03 -0.02 -0.02 -0.01 0.08 0.10 0.16 0.16 0.17 0.18 0.14 0.14 0.12 0.11 0.10 0.10 0.10 0.08 0.08 0.08 0.09 0.09 0.09 0.09
0.21 0.21 0.30 0.32 0.32 0.30 0.19 0.04 0.03 0.03 0.01 -0.00 -0.01 -0.01 -0.00 -0.00 -0.00 -0.00 -0.00 -0.00 -0.00 -0.00 -0.01 -0.03 -0.03 -0.04 -0.04 -0.02 0.00 0.00 0.03 0.02 0.02 0.02 0.03 0.04 0.04 0.04 0.05 0.04 0.04 0.04 0.03 -0.05 -0.05 -0.05 -0.06 -0.08 -0.08 -0.07 -0.08 -0.08 -0.08 -0.08 -0.10 -0.11 -0.11 -0.11 -0.09 -0.08 -0.08 -0.06 -0.02 -0.01 -0.01 0.01 0.14 0.15 0.18 0.18 0.18 0.16 0.14 0.14 0.13 0.12 0.11 0.11 0.10 0.11 0.11 0.10 0.10 0.09 0.09 0.15
0.14 0.36 0.27 0.18 0.18 0.10 0.02 0.02 0.01 0.01 0.00 0.00 0.00 0.00 0.01 0.00 -0.02 -0.02 -0.01 -0.00 -0.00 -0.00 -0.01 -0.03 -0.03 -0.04 0.01 0.01 0.01 0.01 0.03 0.01 0.04 0.04 0.05 0.03 0.04 0.04 0.05 0.02 0.02 -0.00 -0.01 -0.07 -0.07 -0.05 -0.05 -0.08 -0.08 -0.09 -0.07 -0.08 -0.10 -0.10 -0.11 -0.12 -0.12 -0.11 -0.07 -0.04 -0.04 -0.04 0.08 0.12 0.12 0.13 0.18 0.17 0.07 0.07 0.10 0.15 0.11 0.11 0.13 0.10 0.12 0.12 0.13 0.12 0.12 0.12 0.20 0.20 0.20 0.17
0.30 0.24 0.16 0.10 0.10 0.05 -0.01 -0.01 -0.01 -0.01 0.00 -0.00 0.01 0.01 0.01 0.00 -0.01 -0.01 -0.03 -0.02 -0.02 -0.01 0.06 0.05 0.05 0.03 -0.04 -0.05 -0.05 -0.05 -0.04 -0.00 0.03 0.03 0.04 0.03 0.01 0.01 0.02 -0.04 -0.04 -0.03 -0.06 -0.07 -0.07 -0.04 -0.04 -0.07 -0.07 -0.06 -0.07 -0.07 -0.10 -0.10 -0.12 -0.14 -0.14 -0.13 -0.07 -0.03 -0.03 0.01 0.16 0.17 0.17 0.18 0.08 0.07 0.05 0.05 0.06 0.09 0.06 0.06 0.08 0.08 0.09 0.09 0.11 0.17 0.17 0.19 0.16 0.17 0.17 0.19
0.32 0.11 0.08 0.04 0.04 0.00 -0.03 -0.03 -0.05 -0.05 -0.01 -0.02 -0.02 -0.02 -0.02 -0.02 -0.01 -0.01 -0.01 0.01 0.01 0.01 0.27 0.21 0.21 0.08 -0.03 -0.04 -0.05 -0.05 -0.04 -0.03 0.00 0.00 0.03 -0.01 -0.01 -0.01 -0.03 -0.10 -0.10 -0.08 -0.06 -0.05 -0.05 -0.05 -0.05 -0.05 -0.05 -0.04 -0.05 -0.05 -0.08 -0.08 -0.12 -0.12 -0.12 -0.09 0.03 0.08 0.08 0.13 0.12 0.13 0.13 0.09 0.00 0.03 0.02 0.02 0.02 0.03 0.04 0.04 0.05 0.13 0.13 0.13 0.16 0.14 0.14 0.15 0.09 0.11 0.11 0.12
0.14 0.04 0.01 -0.02 -0.02 -0.03 -0.02 -0.03 -0.04 -0.04 -0.04 -0.02 -0.01 -0.01 -0.02 -0.01 0.06 0.06 0.13 0.20 0.20 0.23 0.12 0.09 0.09 0.06 0.05 -0.01 -0.03 -0.03 -0.04 -0.02 -0.01 -0.01 -0.02 -0.04 -0.03 -0.03 -0.06 -0.12 -0.12 -0.09 -0.06 -0.05 -0.05 -0.04 -0.04 -0.05 -0.05 -0.04 -0.04 -0.04 -0.06 -0.06 -0.09 -0.03 -0.03 0.01 0.03 0.13 0.13 0.12 -0.04 -0.02 -0.02 -0.01 0.02 0.02 0.01 0.01 0.01 0.02 0.11 0.11 0.12 0.13 0.12 0.12 0.13 0.10 0.10 0.10 0.06 0.05 0.05 0.07
0.09 -0.01 -0.01 -0.02 -0.02 -0.02 -0.01 -0.00 -0.00 -0.00 -0.01 0.00 0.00 0.00 -0.00 0.00 0.24 0.24 0.31 0.29 0.29 0.20 0.09 0.08 0.08 0.11 0.10 0.04 -0.01 -0.01 -0.02 -0.02 -0.06 -0.06 -0.05 -0.02 -0.01 -0.01 -0.07 -0.08 -0.08 -0.08 -0.07 -0.06 -0.06 -0.05 -0.05 -0.04 -0.04 -0.03 -0.03 -0.02 -0.04 -0.04 -0.05 0.13 0.13 0.15 0.12 -0.04 -0.04 -0.04 0.01 0.02 0.02 0.03 -0.01 0.00 0.01 0.01 0.07 0.09 0.06 0.06 0.08 0.10 0.08 0.08 0.09 0.05 0.05 0.05 0.04 0.04 0.04 0.04
0.02 -0.01 -0.01 -0.01 -0.01 -0.01 0.00 0.00 0.00 0.00 0.00 0.05 0.06 0.06 0.10 0.16 0.18 0.18 0.10 0.08 0.08 0.07 0.11 0.14 0.14 0.13 0.07 0.03 -0.01 -0.01 -0.02 -0.05 -0.05 -0.05 -0.05 -0.01 -0.00 -0.00 -0.00 -0.02 -0.02 -0.04 -0.06 -0.04 -0.04 -0.05 -0.04 -0.01 -0.01 0.00 -0.00 0.04 0.05 0.05 0.08 -0.02 -0.02 -0.02 -0.04 -0.03 -0.03 -0.02 -0.04 -0.02 -0.02 -0.02 0.00 0.02 0.04 0.04 0.03 0.04 0.05 0.05 0.05 0.05 0.02 0.02 0.03 0.02 0.02 0.03 0.03 0.04 0.04 0.04
-0.02 -0.01 -0.01 -0.01 -0.01 -0.00 -0.00 0.00 -0.00 -0.00 0.02 0.31 0.44 0.44 0.40 0.25 0.09 0.09 0.06 0.05 0.05 0.09 0.10 0.15 0.15 0.13 0.04 0.02 -0.02 -0.02 -0.03 -0.03 -0.04 -0.04 -0.02 -0.01 -0.00 -0.00 -0.00 0.00 0.00 -0.01 -0.03 -0.01 -0.01 -0.01 -0.02 0.03 0.03 0.04 0.04 -0.03 -0.02 -0.02 -0.02 -0.08 -0.08 -0.05 -0.04 -0.06 -0.06 -0.05 -0.02 -0.01 -0.01 -0.00 0.00 0.01 0.01 0.01 0.02 0.03 0.04 0.04 0.04 0.03 0.02 0.02 0.02 0.03 0.03 0.04 0.04 0.03 0.03 0.03
-0.02 -0.01 -0.01 -0.01 -0.01 -0.02 0.04 0.02 0.03 0.03 0.07 0.45 0.50 0.50 0.24 0.14 0.12 0.12 0.08 0.06 0.06 0.06 0.06 0.09 0.09 0.06 0.02 0.01 -0.00 -0.00 -0.01 -0.01 -0.03 -0.03 -0.02 0.00 -0.00 -0.00 -0.00 0.03 0.03 0.03 -0.00 0.04 0.04 0.03 0.02 0.01 0.01 -0.01 -0.02 -0.10 -0.09 -0.09 -0.09 -0.09 -0.09 -0.09 -0.08 -0.07 -0.07 -0.05 -0.05 -0.03 -0.03 -0.02 -0.03 -0.02 -0.01 -0.01 0.03 0.03 0.04 0.04 0.04 0.04 0.04 0.04 0.03 0.02 0.02 0.02 0.03 0.02 0.02 0.02
-0.01 -0.01 -0.01 -0.02 -0.02 0.01 0.16 0.16 0.20 0.20 0.32 0.35 0.35 0.35 0.26 0.18 0.12 0.12 0.06 0.04 0.04 0.04 0.05 0.04 0.04 0.03 0.01 0.02 -0.00 -0.00 -0.00 -0.01 -0.00 -0.00 0.00 0.07 0.01 0.01 0.00 0.06 0.06 0.07 0.08 0.04 0.04 0.03 0.02 -0.10 -0.10 -0.09 -0.09 -0.11 -0.10 -0.10 -0.10 -0.10 -0.10 -0.10 -0.09 -0.08 -0.08 -0.06 -0.05 -0.05 -0.05 -0.04 -0.02 -0.00 0.01 0.01 0.03 0.03 0.05 0.05 0.05 0.04 0.02 0.02 0.02 0.01 0.01 0.01 0.01 0.01 0.01 0.01
-0.01 0.00 0.01 0.01 0.01 0.10 0.39 0.37 0.29 0.29 0.32 0.18 0.17 0.17 0.15 0.14 0.04 0.04 0.04 0.03 0.03 0.01 0.03 0.04 0.04 0.03 0.01 0.00 -0.01 -0.01 -0.02 0.00 0.02 0.02 0.08 0.10 0.01 0.01 0.02 0.05 0.05 0.07 0.05 0.02 0.02 -0.01 -0.04 -0.11 -0.11 -0.13 -0.12 -0.12 -0.11 -0.11 -0.10 -0.09 -0.09 -0.09 -0.09 -0.08 -0.08 -0.07 -0.06 -0.05 -0.05 -0.03 0.00 0.01 0.02 0.02 0.04 0.04 0.02 0.02 0.02 0.02 0.01 0.01 0.01 0.01 0.01 0.01 0.01 0.00 0.00 0.00
0.01 0.03 0.06 0.13 0.13 0.23 0.38 0.38 0.32 0.32 0.21 0.06 0.05 0.05 0.03 0.03 -0.01 -0.01 -0.02 -0.01 -0.01 -0.03 -0.01 0.01 0.01 0.01 -0.00 -0.01 -0.02 -0.02 -0.04 -0.02 -0.02 -0.02 0.03 0.06 0.03 0.03 0.03 0.11 0.11 0.12 0.06 -0.03 -0.03 -0.04 -0.07 -0.13 -0.13 -0.13 -0.13 -0.10 -0.09 -0.09 -0.09 -0.08 -0.08 -0.08 -0.08 -0.07 -0.07 -0.07 -0.06 -0.03 -0.03 -0.02 0.01 0.02 0.02 0.02 0.01 0.01 0.01 0.01 0.01 0.02 0.01 0.01 0.01 0.01 0.01 0.01 0.01 0.00 0.00 0.00
0.13 0.23 0.32 0.34 0.34 0.37 0.24 0.22 0.16 0.16 0.11 0.03 0.03 0.03 0.02 -0.00 -0.01 -0.01 -0.03 -0.06 -0.06 -0.02 -0.00 0.04 0.04 0.03 -0.01 -0.02 -0.04 -0.04 -0.03 -0.02 0.01 0.01 0.08 0.16 0.06 0.06 0.03 0.03 0.03 0.04 0.01 -0.03 -0.03 -0.03 -0.10 -0.12 -0.12 -0.12 -0.12 -0.07 -0.07 -0.07 -0.07 -0.08 -0.08 -0.08 -0.08 -0.06 -0.06 -0.05 -0.04 -0.00 -0.00 0.00 0.00 0.01 0.01 0.01 0.01 0.01 0.01 0.01 0.01 0.01 0.01 0.01 0.01 0.01 0.01 0.00 0.00 0.00 0.00 0.00
0.20 0.22 0.24 0.24 0.24 0.24 0.04 0.03 0.03 0.03 0.03 0.01 0.01 0.01 0.00 -0.00 0.01 0.01 0.00 -0.01 -0.01 0.04 0.07 0.07 0.07 0.03 -0.02 -0.04 -0.03 -0.03 -0.01 -0.00 0.04 0.04 0.12 0.24 0.08 0.08 0.03 -0.01 -0.01 -0.02 -0.03 -0.04 -0.04 -0.04 -0.08 -0.10 -0.10 -0.10 -0.10 -0.07 -0.06 -0.06 -0.07 -0.07 -0.07 -0.07 -0.07 -0.04 -0.04 -0.03 -0.02 -0.00 -0.00 -0.00 0.00 0.01 0.01 0.01 0.01 0.01 0.01 0.01 0.01 0.01 0.01 0.01 0.01 0.01 0.01 0.01 0.01 0.01 0.01 0.00
0.10 0.11 0.12 0.09 0.09 0.06 0.00 0.00 0.00 0.00 0.00 -0.00 -0.00 -0.00 0.00 0.01 0.06 0.06 0.07 0.05 0.05 0.03 0.08 0.11 0.11 0.07 -0.00 -0.01 -0.01 -0.01 0.01 0.01 0.05 0.05 0.17 0.03 0.00 0.00 -0.01 -0.01 -0.01 -0.03 -0.04 -0.04 -0.04 -0.05 -0.09 -0.10 -0.10 -0.08 -0.08 -0.06 -0.06 -0.06 -0.06 -0.06 -0.06 -0.06 -0.05 -0.02 -0.02 -0.01 -0.01 -0.00 -0.00 0.00 0.00 0.00 0.00 0.00 0.01 0.01 0.01 0.01 0.01 0.01 0.02 0.02 0.02 0.01 0.01 0.02 0.01 0.01 0.01 0.01
0.09 0.06 0.03 0.02 0.02 0.00 0.00 0.00 0.00 0.00 0.00 -0.00 -0.00 -0.00 0.00 0.02 0.15 0.15 0.08 0.04 0.04 0.03 0.15 0.11 0.11 0.05 0.07 0.04 0.02 0.02 0.02 0.02 0.01 0.01 -0.00 -0.02 0.05 0.05 0.01 -0.01 -0.01 -0.01 -0.05 -0.07 -0.07 -0.06 -0.10 -0.08 -0.08 -0.07 -0.07 -0.06 -0.06 -0.06 -0.06 -0.04 -0.04 -0.02 -0.02 -0.02 -0.02 -0.01 -0.01 -0.00 -0.00 -0.00 0.00 0.00 0.01 0.01 0.01 0.01 0.01 0.01 0.02 0.02 0.03 0.03 0.03 0.02 0.02 0.02 0.01 0.01 0.01 0.01
0.01 0.01 0.00 0.00 0.00 -0.00 -0.00 -0.00 -0.00 -0.00 -0.00 -0.00 -0.00 -0.00 -0.02 -0.01 0.13 0.13 0.04 0.02 0.02 0.09 0.13 0.12 0.12 0.11 0.10 0.08 0.03 0.03 0.01 -0.01 -0.02 -0.02 -0.02 0.00 0.04 0.04 0.00 -0.02 -0.02 -0.03 -0.06 -0.10 -0.10 -0.10 -0.10 -0.09 -0.09 -0.08 -0.07 -0.05 -0.05 -0.05 -0.05 -0.04 -0.04 -0.04 -0.03 -0.02 -0.02 -0.01 -0.01 -0.00 -0.00 -0.00 -0.00 0.01 0.01 0.01 0.02 0.02 0.02 0.02 0.04 0.04 0.02 0.02 0.02 0.02 0.02 0.02 0.02 0.02 0.02 0.02
0.00 0.00 0.00 -0.00 -0.00 -0.00 -0.00 -0.00 -0.00 -0.00 -0.00 -0.00 -0.01 -0.01 -0.02 -0.02 0.04 0.04 0.03 0.01 0.01 0.14 0.22 0.13 0.13 0.14 0.09 0.04 0.02 0.02 -0.00 -0.01 -0.02 -0.02 -0.02 0.04 0.02 0.02 -0.00 -0.04 -0.04 -0.05 -0.07 -0.06 -0.06 -0.10 -0.11 -0.07 -0.07 -0.08 -0.07 -0.04 -0.03 -0.03 -0.03 -0.03 -0.03 -0.03 -0.02 -0.01 -0.01 -0.01 -0.01 -0.00 -0.00 -0.00 0.00 0.02 0.02 0.02 0.03 0.04 0.04 0.04 0.02 0.02 0.02 0.02 0.02 0.02 0.02 0.03 0.03 0.02 0.02 0.03
0.00 0.00 -0.00 -0.00 -0.00 -0.00 -0.00 -0.00 -0.00 -0.00 0.00 0.00 -0.01 -0.01 -0.01 -0.02 -0.02 -0.02 -0.00 0.01 0.01 0.23 0.25 0.19 0.19 0.12 0.06 0.09 0.05 0.05 0.04 -0.00 -0.01 -0.01 -0.01 0.02 0.09 0.09 0.01 -0.01 -0.01 -0.01 -0.03 0.10 0.10 0.15 -0.06 -0.03 -0.03 -0.06 -0.06 -0.03 -0.02 -0.02 -0.02 -0.02 -0.02 -0.02 -0.02 -0.02 -0.02 -0.01 -0.01 0.00 0.00 0.01 0.01 0.03 0.03 0.03 0.03 0.02 0.02 0.02 0.02 0.01 0.01 0.01 0.02 0.02 0.02 0.04 0.05 0.05 0.05 0.06
-0.00 -0.00 -0.00 -0.00 -0.00 -0.00 -0.00 -0.00 0.00 0.00 0.00 0.00 0.00 0.00 0.01 0.00 -0.00 -0.00 -0.01 0.03 0.03 0.13 0.15 0.07 0.07 0.03 -0.00 0.11 0.16 0.16 0.02 0.00 -0.00 -0.00 -0.01 0.18 0.05 0.05 0.02 0.09 0.09 0.04 0.01 0.02 0.02 0.22 0.23 0.03 0.03 -0.01 -0.02 -0.02 -0.02 -0.02 -0.02 -0.03 -0.03 -0.02 -0.02 -0.00 -0.00 0.00 0.00 0.02 0.02 0.03 0.03 0.03 0.03 0.03 0.03 0.03 0.03 0.03 0.04 0.04 0.04 0.04 0.04 0.04 0.04 0.07 0.10 0.09 0.09 0.07
-0.00 -0.00 -0.00 -0.00 -0.00 0.00 0.00 0.00 0.00 0.00 0.00 0.00 0.01 0.01 0.01 -0.00 -0.01 -0.01 -0.02 -0.03 -0.03 -0.02 0.09 0.11 0.11 0.07 0.08 0.04 0.04 0.04 0.03 0.00 -0.00 -0.00 -0.01 0.06 0.25 0.25 0.08 0.09 0.09 0.10 0.02 0.03 0.03 0.08 0.12 0.00 0.00 -0.00 -0.01 -0.02 -0.03 -0.03 -0.03 -0.02 -0.02 -0.01 -0.01 0.01 0.01 0.01 0.01 0.03 0.03 0.03 0.03 0.03 0.04 0.04 0.03 0.04 0.04 0.04 0.05 0.05 0.05 0.05 0.04 0.04 0.04 0.04 0.07 0.10 0.10 0.09
-0.00 -0.00 -0.00 -0.00 -0.00 0.01 0.00 0.00 0.00 0.00 0.01 0.00 0.00 0.00 0.00 -0.00 -0.02 -0.02 -0.04 -0.05 -0.05 -0.03 0.04 0.14 0.14 0.18 0.27 0.15 0.06 0.06 0.05 -0.01 -0.02 -0.02 -0.03 0.19 0.27 0.27 0.11 0.12 0.12 0.10 0.07 0.12 0.12 0.06 0.05 0.02 0.02 -0.00 -0.01 -0.02 -0.01 -0.01 -0.02 -0.02 -0.02 -0.01 -0.00 0.02 0.02 0.03 0.03 0.01 0.01 0.01 0.02 0.06 0.05 0.05 0.05 0.06 0.06 0.06 0.06 0.05 0.04 0.04 0.04 0.04 0.04 0.04 0.07 0.10 0.10 0.09
-0.00 -0.00 -0.00 0.00 0.00 0.01 0.01 0.01 0.00 0.00 0.00 0.00 0.00 0.00 0.01 -0.01 -0.04 -0.04 -0.06 -0.04 -0.04 -0.04 0.05 0.18 0.18 0.22 0.39 0.30 0.15 0.15 0.05 -0.02 -0.03 -0.03 -0.01 0.28 0.30 0.30 0.19 0.11 0.11 0.11 0.20 0.09 0.09 0.11 0.07 0.02 0.02 0.02 0.01 0.00 0.02 0.02 -0.01 -0.02 -0.02 -0.01 0.01 0.02 0.02 0.01 0.01 0.02 0.02 0.04 0.05 0.08 0.07 0.07 0.06 0.07 0.07 0.07 0.07 0.07 0.06 0.06 0.08 0.06 0.06 0.05 0.05 0.06 0.06 0.07
0.00 0.01 0.01 0.01 0.01 0.01 0.02 0.02 0.01 0.01 0.01 0.01 0.00 0.00 0.00 -0.00 -0.01 -0.01 -0.03 -0.04 -0.04 -0.05 -0.04 -0.00 -0.00 0.05 0.06 0.25 0.40 0.40 0.02 -0.02 -0.02 -0.02 0.06 0.33 0.52 0.52 0.28 0.07 0.07 0.15 0.19 0.10 0.10 0.09 0.08 0.03 0.03 0.03 0.02 0.02 0.08 0.08 0.05 -0.00 -0.00 -0.00 0.01 0.02 0.02 0.01 0.01 0.04 0.04 0.06 0.08 0.12 0.11 0.11 0.09 0.10 0.09 0.09 0.08 0.09 0.09 0.09 0.09 0.07 0.07 0.06 0.06 0.06 0.06 0.06
0.01 0.02 0.02 0.02 0.02 0.02 0.03 0.02 0.01 0.01 0.02 0.01 0.01 0.01 0.01 -0.00 -0.01 -0.01 -0.02 -0.04 -0.04 -0.04 -0.03 -0.02 -0.02 0.01 0.00 0.04 0.15 0.15 0.02 0.02 0.00 0.00 0.02 0.09 0.40 0.40 0.58 0.17 0.17 0.07 0.19 0.23 0.23 0.14 0.10 0.10 0.10 0.08 0.05 0.04 0.07 0.07 0.04 0.00 0.00 0.01 0.01 0.01 0.01 0.02 0.02 0.06 0.06 0.09 0.12 0.15 0.13 0.13 0.11 0.13 0.13 0.13 0.11 0.12 0.09 0.09 0.10 0.09 0.09 0.09 0.09 0.07 0.07 0.09
0.03 0.03 0.03 0.03 0.03 0.03 0.03 0.02 0.01 0.01 0.02 0.02 0.02 0.02 0.01 -0.01 -0.03 -0.03 -0.04 -0.04 -0.04 -0.03 -0.02 -0.01 -0.01 -0.01 -0.01 -0.01 0.00 0.00 0.01 0.01 0.01 0.01 0.03 0.14 0.40 0.40 0.46 0.17 0.17 0.06 0.10 0.18 0.18 0.20 0.20 0.14 0.14 0.15 0.08 0.06 0.04 0.04 0.03 0.02 0.02 0.02 0.02 0.01 0.01 0.03 0.04 0.08 0.08 0.12 0.14 0.16 0.15 0.15 0.15 0.16 0.17 0.17 0.17 0.21 0.17 0.17 0.17 0.13 0.13 0.12 0.14 0.14 0.14 0.14
0.03 0.06 0.04 0.03 0.03 0.02 0.03 0.02 0.01 0.01 0.02 0.01 0.01 0.01 0.00 -0.02 -0.05 -0.05 -0.06 -0.05 -0.05 -0.03 -0.02 -0.00 -0.00 0.00 -0.01 -0.02 -0.01 -0.01 0.00 0.02 0.03 0.03 0.05 0.09 0.28 0.28 0.36 0.18 0.18 0.07 0.08 0.21 0.21 0.30 0.28 0.21 0.21 0.16 0.16 0.11 0.07 0.07 0.04 0.03 0.03 0.03 0.03 0.02 0.02 0.03 0.05 0.06 0.06 0.10 0.14 0.19 0.19 0.19 0.17 0.21 0.24 0.24 0.24 0.23 0.22 0.22 0.21 0.17 0.17 0.15 0.17 0.15 0.15 0.14
0.07 0.07 0.04 0.02 0.02 0.02 0.02 0.03 0.02 0.02 0.01 0.01 0.01 0.01 0.01 0.00 -0.01 -0.01 -0.03 -0.04 -0.04 -0.02 -0.02 -0.01 -0.01 -0.01 -0.01 -0.01 -0.01 -0.01 -0.02 -0.01 0.00 0.00 0.02 0.01 0.05 0.05 0.19 0.30 0.30 0.21 0.14 0.25 0.25 0.26 0.33 0.29 0.29 0.06 0.06 0.09 0.08 0.08 0.07 0.04 0.04 0.03 0.04 0.04 0.04 0.06 0.05 0.07 0.07 0.13 0.18 0.29 0.28 0.28 0.23 0.21 0.23 0.23 0.24 0.24 0.25 0.25 0.23 0.21 0.21 0.21 0.19 0.18 0.18 0.17
0.05 0.05 0.04 0.02 0.02 0.02 0.02 0.02 0.02 0.02 0.03 0.02 0.02 0.02 0.01 0.01 0.01 0.01 0.02 -0.01 -0.01 -0.01 -0.01 -0.01 -0.01 -0.01 0.00 -0.01 -0.01 -0.01 -0.04 -0.03 -0.02 -0.02 -0.01 0.01 0.06 0.06 0.18 0.33 0.33 0.34 0.31 0.14 0.14 0.08 0.09 0.08 0.08 0.07 0.06 0.07 0.08 0.08 0.06 0.04 0.04 0.03 0.06 0.08 0.08 0.06 0.06 0.09 0.09 0.19 0.19 0.33 0.34 0.34 0.35 0.23 0.19 0.19 0.19 0.19 0.23 0.23 0.23 0.19 0.19 0.20 0.17 0.18 0.18 0.16
0.07 0.03 0.03 0.03 0.03 0.03 0.01 0.01 0.01 0.01 0.01 0.04 0.04 0.04 0.03 0.02 0.03 0.03 0.03 0.02 0.02 0.01 -0.00 -0.01 -0.01 0.01 0.01 -0.02 -0.03 -0.03 -0.04 -0.03 -0.02 -0.02 -0.01 0.06 0.12 0.12 0.26 0.38 0.38 0.33 0.26 0.14 0.14 0.02 0.04 0.08 0.08 0.09 0.09 0.09 0.11 0.11 0.10 0.05 0.05 0.03 0.05 0.08 0.08 0.07 0.07 0.08 0.08 0.18 0.28 0.33 0.30 0.30 0.28 0.20 0.18 0.18 0.15 0.17 0.21 0.21 0.21 0.19 0.19 0.19 0.17 0.17 0.17 0.17
0.05 0.04 0.03 0.02 0.02 0.02 0.01 0.01 0.01 0.01 0.02 0.03 0.03 0.03 0.03 0.03 0.04 0.04 0.05 0.02 0.02 0.02 0.01 0.01 0.01 0.03 0.04 0.03 -0.02 -0.02 -0.03 -0.03 -0.03 -0.03 -0.01 0.07 0.15 0.15 0.27 0.11 0.11 0.07 0.07 0.08 0.08 0.09 0.03 0.04 0.04 0.07 0.08 0.08 0.10 0.10 0.10 0.05 0.05 0.05 0.06 0.08 0.08 0.16 0.15 0.12 0.12 0.24 0.33 0.35 0.27 0.27 0.23 0.22 0.18 0.18 0.18 0.18 0.16 0.16 0.18 0.16 0.16 0.17 0.15 0.15 0.15 0.16
0.05 0.04 0.03 0.02 0.02 0.02 0.01 0.02 0.01 0.01 0.04 0.05 0.03 0.03 0.01 -0.00 0.00 0.00 0.04 0.05 0.05 0.02 0.02 0.02 0.02 0.03 0.04 0.02 -0.00 -0.00 -0.02 -0.03 -0.02 -0.02 0.02 0.16 0.23 0.23 0.17 0.03 0.03 0.03 0.08 0.15 0.15 0.13 0.06 0.04 0.04 0.03 0.05 0.08 0.10 0.10 0.08 0.06 0.06 0.08 0.08 0.10 0.10 0.29 0.29 0.23 0.23 0.29 0.32 0.34 0.27 0.27 0.27 0.30 0.26 0.26 0.21 0.21 0.17 0.17 0.15 0.15 0.15 0.15 0.15 0.14 0.14 0.15
0.06 0.03 0.03 0.03 0.03 0.01 0.02 0.02 0.02 0.02 0.04 0.05 0.02 0.02 0.01 0.00 0.02 0.02 0.04 0.05 0.05 0.04 0.03 0.03 0.03 0.03 0.06 0.01 -0.00 -0.00 -0.01 -0.02 -0.00 -0.00 0.05 0.06 0.06 0.06 0.05 0.06 0.06 0.05 0.07 0.17 0.17 0.15 0.12 0.05 0.05 0.03 0.03 0.04 0.08 0.08 0.11 0.09 0.09 0.11 0.11 0.12 0.12 0.16 0.21 0.24 0.24 0.38 0.34 0.30 0.28 0.28 0.30 0.30 0.27 0.27 0.21 0.23 0.22 0.22 0.18 0.21 0.21 0.19 0.17 0.18 0.18 0.16
0.05 0.04 0.04 0.03 0.03 0.04 0.04 0.03 0.04 0.04 0.03 0.03 0.02 0.02 0.01 -0.00 0.00 0.00 0.05 0.06 0.06 0.05 0.03 0.06 0.06 0.11 0.06 0.02 0.00 0.00 0.02 0.01 0.04 0.04 0.04 0.02 0.02 0.02 0.02 0.05 0.05 0.06 0.06 0.06 0.06 0.05 0.12 0.14 0.14 0.09 0.07 0.06 0.09 0.09 0.10 0.12 0.12 0.15 0.13 0.12 0.12 0.16 0.21 0.30 0.30 0.34 0.31 0.28 0.31 0.31 0.31 0.35 0.26 0.26 0.25 0.27 0.26 0.26 0.24 0.23 0.23 0.24 0.22 0.24 0.24 0.22
0.06 0.04 0.04 0.04 0.04 0.03 0.02 0.03 0.04 0.04 0.03 0.02 0.01 0.01 -0.01 -0.01 -0.02 -0.02 0.01 0.01 0.01 0.06 0.05 0.02 0.02 0.07 0.13 0.05 0.03 0.03 0.12 0.11 0.07 0.07 0.04 0.03 0.03 0.03 0.03 0.04 0.04 0.04 0.05 0.05 0.05 0.05 0.07 0.09 0.09 0.10 0.12 0.11 0.10 0.10 0.09 0.12 0.12 0.15 0.13 0.13 0.13 0.18 0.21 0.27 0.27 0.32 0.31 0.30 0.31 0.31 0.29 0.27 0.24 0.24 0.24 0.25 0.27 0.27 0.26 0.26 0.26 0.26 0.27 0.30 0.30 0.28
0.10 0.07 0.07 0.06 0.06 0.05 0.03 0.02 0.04 0.04 0.05 0.03 0.02 0.02 0.01 -0.00 -0.01 -0.01 0.02 0.02 0.02 0.05 0.08 0.05 0.05 0.06 0.07 0.04 0.09 0.09 0.21 0.17 0.07 0.07 0.04 0.05 0.05 0.05 0.05 0.04 0.04 0.03 0.04 0.04 0.04 0.05 0.06 0.07 0.07 0.12 0.12 0.19 0.16 0.16 0.10 0.08 0.08 0.13 0.16 0.16 0.16 0.21 0.27 0.31 0.31 0.31 0.31 0.31 0.35 0.35 0.31 0.25 0.29 0.29 0.25 0.28 0.27 0.27 0.29 0.34 0.34 0.31 0.29 0.32 0.32 0.31
0.06 0.09 0.07 0.06 0.06 0.05 0.04 0.02 0.04 0.04 0.05 0.03 0.02 0.02 0.01 -0.00 0.04 0.04 0.04 0.03 0.03 0.06 0.09 0.06 0.06 0.06 0.06 0.06 0.10 0.10 0.17 0.10 0.07 0.07 0.05 0.07 0.07 0.07 0.07 0.06 0.06 0.04 0.03 0.03 0.03 0.03 0.03 0.05 0.05 0.09 0.16 0.20 0.14 0.14 0.10 0.10 0.10 0.12 0.16 0.18 0.18 0.27 0.31 0.31 0.31 0.32 0.32 0.32 0.34 0.34 0.33 0.30 0.32 0.32 0.32 0.28 0.29 0.29 0.33 0.34 0.34 0.34 0.33 0.33 0.33 0.31
0.07 0.06 0.08 0.08 0.08 0.08 0.03 0.02 0.02 0.02 0.04 0.03 0.03 0.03 0.02 -0.01 0.01 0.01 0.05 0.05 0.05 0.11 0.11 0.10 0.10 0.09 0.09 0.08 0.07 0.07 0.10 0.08 0.08 0.08 0.07 0.09 0.10 0.10 0.08 0.07 0.07 0.05 0.03 0.03 0.03 0.03 0.04 0.05 0.05 0.06 0.09 0.14 0.16 0.16 0.13 0.10 0.10 0.13 0.13 0.18 0.18 0.26 0.31 0.30 0.30 0.31 0.32 0.33 0.32 0.32 0.29 0.29 0.24 0.24 0.24 0.26 0.26 0.26 0.32 0.28 0.28 0.34 0.36 0.39 0.39 0.35
0.06 0.04 0.09 0.10 0.10 0.08 0.03 0.04 0.04 0.04 0.09 0.04 0.03 0.03 0.06 0.00 -0.02 -0.02 -0.00 0.03 0.03 0.06 0.07 0.11 0.11 0.14 0.16 0.09 0.08 0.08 0.11 0.10 0.09 0.09 0.09 0.13 0.13 0.13 0.09 0.09 0.09 0.07 0.06 0.04 0.04 0.06 0.10 0.12 0.12 0.07 0.07 0.08 0.12 0.12 0.17 0.17 0.17 0.17 0.16 0.20 0.20 0.29 0.30 0.31 0.31 0.32 0.33 0.34 0.28 0.28 0.25 0.25 0.21 0.21 0.21 0.20 0.20 0.20 0.22 0.30 0.30 0.37 0.40 0.40 0.40 0.42